| time (UTC) | temp C | wind direction | speed KPH | gust KPH | rain 1hr cm | rain 24hr cm | rain mn cm | humidity % | barometer mb |
| 20260906093231 | 17 | 350 | 12.9 | 0.0 | 0.00 | 0.00 | 0.00 | 42 | 1026.0 |
| 20260906092211 | 17 | 300 | 11.3 | 0.0 | 0.00 | 0.00 | 0.00 | 48 | |
| 20260906090234 | 17 | 290 | 11.3 | 0.0 | 0.00 | 0.00 | 0.00 | 52 | 1026.0 |
| 20260906083230 | 17 | 290 | 11.3 | 0.0 | 0.00 | 0.00 | 0.00 | 48 | 1025.0 |
| 20260906082213 | 17 | 320 | 11.3 | 0.0 | 0.00 | 0.00 | 0.00 | 55 | |
| 20260906080235 | 17 | 0 | 8.0 | 0.0 | 0.00 | 0.00 | 0.00 | 55 | 1025.0 |
| 20260906073231 | 17 | 230 | 11.3 | 0.0 | 0.00 | 0.00 | 0.00 | 59 | 1025.0 |
| 20260906072526 | 16 | 230 | 8.0 | 0.0 | 0.00 | 0.00 | 0.00 | 67 | |
| 20260906070305 | 15 | 240 | 9.7 | 0.0 | 0.00 | 0.00 | 0.00 | 67 | 1025.0 |
| 20260906063232 | 15 | 260 | 11.3 | 0.0 | 0.00 | 0.00 | 0.00 | 67 | 1025.0 |
| 20260906062211 | 13 | 240 | 14.5 | 0.0 | 0.00 | 0.00 | 0.00 | 71 | |
| 20260906060232 | 13 | 240 | 12.9 | 0.0 | 0.00 | 0.00 | 0.00 | 76 | 1024.0 |
| 20260906053216 | 11 | 230 | 11.3 | 0.0 | 0.00 | 0.00 | 0.00 | 87 | 1024.0 |
| 20260906052138 | 11 | 230 | 11.3 | 0.0 | 0.00 | 0.00 | 0.00 | 81 | |
| 20260906050234 | 10 | 230 | 11.3 | 0.0 | 0.00 | 0.00 | 0.00 | 87 | 1024.0 |
| 20260906043224 | 11 | 230 | 9.7 | 0.0 | 0.00 | 0.00 | 0.00 | 81 | 1024.0 |
| 20260906042629 | 11 | 230 | 8.0 | 0.0 | 0.00 | 0.00 | 0.00 | 87 | |
| 20260906040231 | 12 | 240 | 8.0 | 0.0 | 0.00 | 0.00 | 0.00 | 81 | 1023.0 |
| 20260906033224 | 12 | 200 | 4.8 | 0.0 | 0.00 | 0.00 | 0.00 | 82 | 1023.0 |
| 20260906032226 | 12 | 220 | 8.0 | 0.0 | 0.00 | 0.00 | 0.00 | 76 | |
| 20260906030234 | 12 | 220 | 8.0 | 0.0 | 0.00 | 0.00 | 0.00 | 81 | 1023.0 |
| 20260906023225 | 12 | 220 | 8.0 | 0.0 | 0.00 | 0.00 | 0.00 | 82 | 1023.0 |
| 20260906022211 | 12 | 220 | 8.0 | 0.0 | 0.00 | 0.00 | 0.00 | 82 | |
| 20260906020235 | 12 | 220 | 9.7 | 0.0 | 0.00 | 0.00 | 0.00 | 82 | 1023.0 |
| 20260906013224 | 12 | 250 | 4.8 | 0.0 | 0.00 | 0.00 | 0.00 | 82 | 1022.0 |
| 20260906012532 | 13 | 250 | 8.0 | 0.0 | 0.00 | 0.00 | 0.00 | 76 | |
| 20260906010236 | 12 | 240 | 8.0 | 0.0 | 0.00 | 0.00 | 0.00 | 82 | 1022.0 |
| 20260906003224 | 13 | 200 | 8.0 | 0.0 | 0.00 | 0.00 | 0.00 | 82 | 1022.0 |
| 20260906002226 | 13 | 200 | 8.0 | 0.0 | 0.00 | 0.00 | 0.00 | 76 | |
| 20260906000234 | 13 | 210 | 8.0 | 0.0 | 0.00 | 0.00 | 0.00 | 82 | 1022.0 |
| 20260905233223 | 15 | 0 | 3.2 | 0.0 | 0.00 | 0.00 | 0.00 | 77 | 1022.0 |
| 20260905232210 | 16 | 0 | 3.2 | 0.0 | 0.00 | 0.00 | 0.00 | 67 | |
| 20260905230237 | 15 | 360 | 9.7 | 0.0 | 0.00 | 0.00 | 0.00 | 67 | 1022.0 |
| 20260905223224 | 15 | 360 | 9.7 | 0.0 | 0.00 | 0.00 | 0.00 | 67 | 1022.0 |
| 20260905222630 | 15 | 10 | 14.5 | 0.0 | 0.00 | 0.00 | 0.00 | 67 | |
| 20260905220236 | 15 | 10 | 14.5 | 0.0 | 0.00 | 0.00 | 0.00 | 67 | 1022.0 |
| 20260905213223 | 15 | 250 | 8.0 | 0.0 | 0.00 | 0.00 | 0.00 | 67 | 1021.0 |
| 20260905212225 | 15 | 240 | 11.3 | 0.0 | 0.00 | 0.00 | 0.00 | 62 | |
| 20260905210236 | 15 | 240 | 11.3 | 0.0 | 0.00 | 0.00 | 0.00 | 62 | 1021.0 |
| 20260905210059 | 15 | 220 | 16.1 | 0.0 | 0.00 | 0.00 | 0.00 | 62 | 1020.0 |
| 20260905205137 | 15 | 220 | 16.1 | 0.0 | 0.00 | 0.00 | 0.00 | 62 | 1020.0 |
| 20260905204737 | 15 | 220 | 16.1 | 0.0 | 0.00 | 0.00 | 0.00 | 62 | 1020.0 |
| 20260905204138 | 15 | 220 | 16.1 | 0.0 | 0.00 | 0.00 | 0.00 | 62 | 1020.0 |
| 20260905203238 | 15 | 220 | 16.1 | 0.0 | 0.00 | 0.00 | 0.00 | 62 | 1020.0 |
| 20260905202228 | 17 | 230 | 19.3 | 0.0 | 0.00 | 0.00 | 0.00 | 52 | |
| 20260905200938 | 16 | 230 | 16.1 | 0.0 | 0.00 | 0.00 | 0.00 | 59 | 1020.0 |
| 20260905200341 | 16 | 230 | 16.1 | 0.0 | 0.00 | 0.00 | 0.00 | 59 | 1020.0 |
| 20260905195938 | 17 | 230 | 12.9 | 0.0 | 0.00 | 0.00 | 0.00 | 59 | 1020.0 |
| 20260905195238 | 17 | 230 | 12.9 | 0.0 | 0.00 | 0.00 | 0.00 | 59 | 1020.0 |
| 20260905194138 | 17 | 230 | 12.9 | 0.0 | 0.00 | 0.00 | 0.00 | 59 | 1020.0 |
| 20260905193451 | 17 | 230 | 12.9 | 0.0 | 0.00 | 0.00 | 0.00 | 59 | 1020.0 |
| 20260905193238 | 17 | 230 | 12.9 | 0.0 | 0.00 | 0.00 | 0.00 | 59 | 1020.0 |
| 20260905192739 | 17 | 250 | 12.9 | 0.0 | 0.00 | 0.00 | 0.00 | 52 | 1020.0 |
| 20260905192624 | 17 | 240 | 14.5 | 0.0 | 0.00 | 0.00 | 0.00 | 52 | |
| 20260905192145 | 17 | 250 | 12.9 | 0.0 | 0.00 | 0.00 | 0.00 | 52 | 1020.0 |
| 20260905191638 | 17 | 250 | 12.9 | 0.0 | 0.00 | 0.00 | 0.00 | 52 | 1020.0 |
| 20260905182211 | 18 | 260 | 11.3 | 0.0 | 0.00 | 0.00 | 0.00 | 48 | |
| 20260905181338 | 18 | 260 | 12.9 | 0.0 | 0.00 | 0.00 | 0.00 | 48 | 1019.0 |
| 20260905181138 | 18 | 260 | 12.9 | 0.0 | 0.00 | 0.00 | 0.00 | 48 | 1019.0 |
| 20260905180738 | 18 | 260 | 12.9 | 0.0 | 0.00 | 0.00 | 0.00 | 48 | 1019.0 |
| 20260905180341 | 18 | 260 | 12.9 | 0.0 | 0.00 | 0.00 | 0.00 | 48 | 1019.0 |
| 20260905180140 | 20 | 280 | 11.3 | 0.0 | 0.00 | 0.00 | 0.00 | 45 | 1019.0 |
| 20260905175438 | 20 | 280 | 11.3 | 0.0 | 0.00 | 0.00 | 0.00 | 45 | 1019.0 |
| 20260905175238 | 20 | 280 | 11.3 | 0.0 | 0.00 | 0.00 | 0.00 | 45 | 1019.0 |
| 20260905174738 | 20 | 280 | 11.3 | 0.0 | 0.00 | 0.00 | 0.00 | 45 | 1019.0 |
| 20260905174138 | 20 | 280 | 11.3 | 0.0 | 0.00 | 0.00 | 0.00 | 45 | 1019.0 |
| 20260905173452 | 20 | 280 | 11.3 | 0.0 | 0.00 | 0.00 | 0.00 | 45 | 1019.0 |
| 20260905172738 | 21 | 270 | 19.3 | 0.0 | 0.00 | 0.00 | 0.00 | 43 | 1019.0 |
| 20260905172248 | 21 | 270 | 19.3 | 0.0 | 0.00 | 0.00 | 0.00 | 43 | |
| 20260905172152 | 21 | 270 | 19.3 | 0.0 | 0.00 | 0.00 | 0.00 | 43 | 1019.0 |
| 20260905171600 | 21 | 270 | 19.3 | 0.0 | 0.00 | 0.00 | 0.00 | 43 | 1019.0 |
| 20260905170552 | 21 | 270 | 19.3 | 0.0 | 0.00 | 0.00 | 0.00 | 43 | 1019.0 |
| 20260905170237 | 21 | 270 | 19.3 | 0.0 | 0.00 | 0.00 | 0.00 | 43 | 1019.0 |
| 20260905163838 | 21 | 270 | 24.1 | 0.0 | 0.00 | 0.00 | 0.00 | 40 | 1018.0 |
| 20260905163231 | 21 | 270 | 24.1 | 0.0 | 0.00 | 0.00 | 0.00 | 40 | 1018.0 |
| 20260905162937 | 21 | 280 | 14.5 | 0.0 | 0.00 | 0.00 | 0.00 | 40 | 1018.0 |
| 20260905162616 | 21 | 280 | 22.5 | 0.0 | 0.00 | 0.00 | 0.00 | 40 | |
| 20260905162245 | 21 | 280 | 14.5 | 0.0 | 0.00 | 0.00 | 0.00 | 40 | 1018.0 |
| 20260905161639 | 21 | 280 | 14.5 | 0.0 | 0.00 | 0.00 | 0.00 | 40 | 1018.0 |
| 20260905161139 | 21 | 280 | 14.5 | 0.0 | 0.00 | 0.00 | 0.00 | 40 | 1018.0 |
| 20260905160838 | 21 | 280 | 14.5 | 0.0 | 0.00 | 0.00 | 0.00 | 40 | 1018.0 |
| 20260905160340 | 21 | 280 | 14.5 | 0.0 | 0.00 | 0.00 | 0.00 | 40 | 1018.0 |
| 20260905154738 | 22 | 270 | 22.5 | 0.0 | 0.00 | 0.00 | 0.00 | 37 | 1018.0 |
| 20260905154559 | 22 | 270 | 22.5 | 0.0 | 0.00 | 0.00 | 0.00 | 37 | 1018.0 |
| 20260905154238 | 22 | 270 | 22.5 | 0.0 | 0.00 | 0.00 | 0.00 | 37 | 1018.0 |
| 20260905152306 | 22 | 260 | 22.5 | 0.0 | 0.00 | 0.00 | 0.00 | 33 | |
| 20260905151849 | 22 | 260 | 25.7 | 0.0 | 0.00 | 0.00 | 0.00 | 35 | 1018.0 |
| 20260905151139 | 22 | 260 | 25.7 | 0.0 | 0.00 | 0.00 | 0.00 | 35 | 1018.0 |
| 20260905150637 | 22 | 260 | 25.7 | 0.0 | 0.00 | 0.00 | 0.00 | 35 | 1018.0 |
| 20260905145938 | 22 | 260 | 32.2 | 0.0 | 0.00 | 0.00 | 0.00 | 33 | 1017.0 |
| 20260905145638 | 22 | 260 | 32.2 | 0.0 | 0.00 | 0.00 | 0.00 | 33 | 1017.0 |
| 20260905145137 | 22 | 260 | 32.2 | 0.0 | 0.00 | 0.00 | 0.00 | 33 | 1017.0 |
| 20260905144238 | 22 | 260 | 32.2 | 0.0 | 0.00 | 0.00 | 0.00 | 33 | 1017.0 |
| 20260905143739 | 22 | 260 | 32.2 | 0.0 | 0.00 | 0.00 | 0.00 | 33 | 1017.0 |
| 20260905142145 | 22 | 260 | 27.4 | 0.0 | 0.00 | 0.00 | 0.00 | 38 | 1017.0 |
| 20260905142048 | 22 | 260 | 29.0 | 0.0 | 0.00 | 0.00 | 0.00 | 38 | |
| 20260905140451 | 22 | 260 | 27.4 | 0.0 | 0.00 | 0.00 | 0.00 | 38 | 1017.0 |
| 20260905140142 | 22 | 280 | 24.1 | 0.0 | 0.00 | 0.00 | 0.00 | 38 | 1017.0 |
| 20260905135100 | 22 | 280 | 24.1 | 0.0 | 0.00 | 0.00 | 0.00 | 38 | 1017.0 |
| 20260905134637 | 22 | 280 | 24.1 | 0.0 | 0.00 | 0.00 | 0.00 | 38 | 1017.0 |
| 20260905134238 | 22 | 280 | 24.1 | 0.0 | 0.00 | 0.00 | 0.00 | 38 | 1017.0 |
| 20260905133839 | 22 | 280 | 24.1 | 0.0 | 0.00 | 0.00 | 0.00 | 38 | 1017.0 |
| 20260905133451 | 22 | 280 | 24.1 | 0.0 | 0.00 | 0.00 | 0.00 | 38 | 1017.0 |
| 20260905133241 | 22 | 280 | 24.1 | 0.0 | 0.00 | 0.00 | 0.00 | 38 | 1017.0 |
| 20260905133138 | 22 | 270 | 25.7 | 0.0 | 0.00 | 0.00 | 0.00 | 40 | 1017.0 |
| 20260905132359 | 22 | 270 | 25.7 | 0.0 | 0.00 | 0.00 | 0.00 | 38 | |
| 20260905132248 | 22 | 270 | 25.7 | 0.0 | 0.00 | 0.00 | 0.00 | 40 | 1017.0 |
| 20260905131637 | 22 | 270 | 25.7 | 0.0 | 0.00 | 0.00 | 0.00 | 40 | 1017.0 |
| 20260905131138 | 22 | 270 | 25.7 | 0.0 | 0.00 | 0.00 | 0.00 | 40 | 1017.0 |
| 20260905130738 | 22 | 270 | 25.7 | 0.0 | 0.00 | 0.00 | 0.00 | 40 | 1017.0 |
| 20260905130242 | 22 | 270 | 25.7 | 0.0 | 0.00 | 0.00 | 0.00 | 40 | 1017.0 |
| 20260905125638 | 22 | 260 | 27.4 | 0.0 | 0.00 | 0.00 | 0.00 | 40 | 1018.0 |
| 20260905125439 | 22 | 260 | 27.4 | 0.0 | 0.00 | 0.00 | 0.00 | 40 | 1018.0 |
| 20260905125238 | 22 | 260 | 27.4 | 0.0 | 0.00 | 0.00 | 0.00 | 40 | 1018.0 |
| 20260905124938 | 22 | 260 | 27.4 | 0.0 | 0.00 | 0.00 | 0.00 | 40 | 1018.0 |
| 20260905124559 | 22 | 260 | 27.4 | 0.0 | 0.00 | 0.00 | 0.00 | 40 | 1018.0 |
| 20260905124059 | 22 | 260 | 27.4 | 0.0 | 0.00 | 0.00 | 0.00 | 40 | 1018.0 |
| 20260905123639 | 22 | 260 | 27.4 | 0.0 | 0.00 | 0.00 | 0.00 | 40 | 1018.0 |
| 20260905123338 | 22 | 260 | 27.4 | 0.0 | 0.00 | 0.00 | 0.00 | 40 | 1018.0 |
| 20260905123138 | 22 | 280 | 20.9 | 0.0 | 0.00 | 0.00 | 0.00 | 43 | 1018.0 |
| 20260905122256 | 22 | 280 | 19.3 | 0.0 | 0.00 | 0.00 | 0.00 | 40 | |
| 20260905122145 | 22 | 280 | 20.9 | 0.0 | 0.00 | 0.00 | 0.00 | 43 | 1018.0 |
| 20260905121749 | 22 | 280 | 20.9 | 0.0 | 0.00 | 0.00 | 0.00 | 43 | 1018.0 |
| 20260905121138 | 22 | 280 | 20.9 | 0.0 | 0.00 | 0.00 | 0.00 | 43 | 1018.0 |
| 20260905120553 | 22 | 280 | 20.9 | 0.0 | 0.00 | 0.00 | 0.00 | 43 | 1018.0 |
| 20260905115845 | 22 | 250 | 29.0 | 0.0 | 0.00 | 0.00 | 0.00 | 46 | 1018.0 |
| 20260905114059 | 22 | 250 | 29.0 | 0.0 | 0.00 | 0.00 | 0.00 | 46 | 1018.0 |
| 20260905113230 | 22 | 250 | 29.0 | 0.0 | 0.00 | 0.00 | 0.00 | 46 | 1018.0 |
| 20260905112738 | 21 | 250 | 24.1 | 0.0 | 0.00 | 0.00 | 0.00 | 49 | 1018.0 |
| 20260905112251 | 21 | 250 | 24.1 | 0.0 | 0.00 | 0.00 | 0.00 | 49 | 1018.0 |
| 20260905112244 | 21 | 260 | 22.5 | 0.0 | 0.00 | 0.00 | 0.00 | 49 | |
| 20260905111852 | 21 | 250 | 24.1 | 0.0 | 0.00 | 0.00 | 0.00 | 49 | 1018.0 |
| 20260905110231 | 21 | 250 | 24.1 | 0.0 | 0.00 | 0.00 | 0.00 | 49 | 1018.0 |
| 20260905105238 | 21 | 230 | 25.7 | 0.0 | 0.00 | 0.00 | 0.00 | 52 | 1018.0 |
| 20260905105100 | 21 | 230 | 25.7 | 0.0 | 0.00 | 0.00 | 0.00 | 52 | 1018.0 |
| 20260905104638 | 21 | 230 | 25.7 | 0.0 | 0.00 | 0.00 | 0.00 | 52 | 1018.0 |
| 20260905104338 | 21 | 230 | 25.7 | 0.0 | 0.00 | 0.00 | 0.00 | 52 | 1018.0 |
| 20260905103231 | 21 | 230 | 25.7 | 0.0 | 0.00 | 0.00 | 0.00 | 52 | 1018.0 |
| 20260905102838 | 20 | 240 | 29.0 | 0.0 | 0.00 | 0.00 | 0.00 | 60 | 1018.0 |
| 20260905102637 | 20 | 240 | 29.0 | 0.0 | 0.00 | 0.00 | 0.00 | 60 | |
| 20260905102343 | 20 | 240 | 29.0 | 0.0 | 0.00 | 0.00 | 0.00 | 60 | 1018.0 |
| 20260905101938 | 20 | 240 | 29.0 | 0.0 | 0.00 | 0.00 | 0.00 | 60 | 1018.0 |
| 20260905101438 | 20 | 240 | 29.0 | 0.0 | 0.00 | 0.00 | 0.00 | 60 | 1018.0 |
| 20260905100838 | 20 | 240 | 29.0 | 0.0 | 0.00 | 0.00 | 0.00 | 60 | 1018.0 |
| 20260905100344 | 20 | 240 | 29.0 | 0.0 | 0.00 | 0.00 | 0.00 | 60 | 1018.0 |